RYR976 LPPR-EHAM

Flight info

Callsign RYR976
Flight time N/A
Altitude 24000
Route TURON9E TURON P600 ASDEB/N0454F360 DCT LOTEE DCT AZFIC DCT ERIGA DCT GODIX DCT PODEM UN873 BAZOS DCT LUMIL DCT BELOB UY873 DENUT DENUT3A
Aircraft B738/M-SDE2E3FGHIRWXY/LB1

Departure

Time 2026-05-04 14:58
Airport Francisco de Sá Carneiro Airport (LPPR)

Arrival

Time N/A
Airport Amsterdam Airport Schiphol (EHAM)
Time Latitude Longitude Altitude Speed Heading
2026-05-04 14:33 41.23687 -8.67546 227 ft 0 kts 258°
2026-05-04 14:45 41.23690 -8.67524 228 ft 3 kts 249°
2026-05-04 14:45 41.23697 -8.67501 230 ft 3 kts 249°
2026-05-04 14:46 41.23703 -8.67478 230 ft 3 kts 240°
2026-05-04 14:46 41.23715 -8.67459 229 ft 3 kts 209°
2026-05-04 14:46 41.23733 -8.67451 229 ft 3 kts 177°
2026-05-04 14:46 41.23735 -8.67451 228 ft 0 kts 175°
2026-05-04 14:49 41.23731 -8.67450 229 ft 2 kts 175°
2026-05-04 14:49 41.23705 -8.67446 231 ft 6 kts 171°
2026-05-04 14:49 41.23657 -8.67433 230 ft 8 kts 166°
2026-05-04 14:50 41.23604 -8.67418 232 ft 8 kts 168°
2026-05-04 14:50 41.23576 -8.67410 232 ft 0 kts 170°
2026-05-04 14:52 41.23575 -8.67410 232 ft 2 kts 169°
2026-05-04 14:52 41.23523 -8.67397 235 ft 10 kts 170°
2026-05-04 14:53 41.23480 -8.67387 233 ft 10 kts 169°
2026-05-04 14:53 41.23393 -8.67365 233 ft 10 kts 173°
2026-05-04 14:53 41.23339 -8.67407 233 ft 9 kts 239°
2026-05-04 14:53 41.23324 -8.67490 234 ft 9 kts 259°
2026-05-04 14:54 41.23323 -8.67500 234 ft 0 kts 259°
2026-05-04 14:54 41.23316 -8.67548 236 ft 6 kts 261°
2026-05-04 14:55 41.23310 -8.67587 237 ft 0 kts 257°
2026-05-04 14:55 41.23300 -8.67654 239 ft 12 kts 261°
2026-05-04 14:56 41.23317 -8.67720 240 ft 12 kts 310°
2026-05-04 14:56 41.23353 -8.67746 239 ft 1 kts 349°
2026-05-04 14:56 41.23363 -8.67749 238 ft 2 kts 349°
2026-05-04 14:56 41.23382 -8.67754 237 ft 4 kts 349°
2026-05-04 14:57 41.23413 -8.67762 238 ft 5 kts 349°
2026-05-04 14:57 41.23436 -8.67768 235 ft 0 kts 349°
2026-05-04 14:57 41.23541 -8.67794 232 ft 46 kts 349°
2026-05-04 14:58 41.24117 -8.67945 209 ft 117 kts 349°
2026-05-04 14:58 41.25117 -8.68198 256 ft 168 kts 348°
2026-05-04 14:58 41.26213 -8.68427 1194 ft 156 kts 349°
2026-05-04 14:58 41.27339 -8.68652 1878 ft 171 kts 345°
2026-05-04 14:59 41.28543 -8.69046 2530 ft 184 kts 342°
2026-05-04 14:59 41.29800 -8.69442 3342 ft 187 kts 346°
2026-05-04 14:59 41.32453 -8.70180 3443 ft 192 kts 347°
2026-05-04 15:00 41.33729 -8.70486 3620 ft 188 kts 345°
2026-05-04 15:00 41.35018 -8.70877 4300 ft 185 kts 343°
2026-05-04 15:00 41.36217 -8.71214 4875 ft 176 kts 345°
2026-05-04 15:01 41.38798 -8.71918 5510 ft 191 kts 347°
2026-05-04 15:01 41.40100 -8.72184 6116 ft 189 kts 350°
2026-05-04 15:01 41.41416 -8.72275 6804 ft 192 kts
2026-05-04 15:01 41.42792 -8.71877 7124 ft 214 kts
2026-05-04 15:02 41.44310 -8.71573 7560 ft 224 kts
2026-05-04 15:02 41.45817 -8.71160 8401 ft 219 kts
2026-05-04 15:02 41.47328 -8.70774 9002 ft 225 kts
2026-05-04 15:02 41.48945 -8.70298 9244 ft 249 kts
2026-05-04 15:03 41.50662 -8.69898 9980 ft 244 kts
2026-05-04 15:03 41.52202 -8.69488 11244 ft 207 kts
2026-05-04 15:03 41.53574 -8.69083 11935 ft 205 kts
2026-05-04 15:03 41.55077 -8.68678 11873 ft 233 kts
2026-05-04 15:04 41.56657 -8.68399 12488 ft 224 kts
2026-05-04 15:04 41.58222 -8.68183 12917 ft 232 kts
2026-05-04 15:04 41.59915 -8.67935 12860 ft 262 kts
2026-05-04 15:04 41.61830 -8.67613 12929 ft 286 kts
2026-05-04 15:05 41.63875 -8.67261 13201 ft 307 kts
2026-05-04 15:05 41.65989 -8.66930 14058 ft 298 kts 358°
2026-05-04 15:05 41.67994 -8.66583 15196 ft 287 kts
2026-05-04 15:05 41.70012 -8.66218 15518 ft 304 kts
2026-05-04 15:06 41.72173 -8.65814 15766 ft 320 kts
2026-05-04 15:06 41.74388 -8.65401 16477 ft 321 kts
2026-05-04 15:06 41.76593 -8.64976 17286 ft 317 kts
2026-05-04 15:07 41.80820 -8.64087 19079 ft 298 kts
2026-05-04 15:07 41.82840 -8.63622 19794 ft 291 kts
2026-05-04 15:07 41.84828 -8.63109 20333 ft 291 kts
2026-05-04 15:07 41.86828 -8.62551 20674 ft 296 kts
2026-05-04 15:08 41.88879 -8.61980 20941 ft 305 kts
2026-05-04 15:08 41.90959 -8.61340 21257 ft 313 kts 11°
2026-05-04 15:08 41.93046 -8.60406 21700 ft 315 kts 11°
2026-05-04 15:08 41.95146 -8.59572 22119 ft 315 kts
2026-05-04 15:09 41.97278 -8.58864 22520 ft 316 kts
2026-05-04 15:09 41.99433 -8.58247 22920 ft 318 kts
2026-05-04 15:09 42.01647 -8.57665 23024 ft 330 kts
2026-05-04 15:10 42.06283 -8.56392 23432 ft 352 kts 14°
2026-05-04 15:10 42.08451 -8.54747 23778 ft 364 kts 33°
2026-05-04 15:10 42.12523 -8.50442 24054 ft 385 kts 34°
2026-05-04 15:11 42.14664 -8.48136 24093 ft 398 kts 34°
2026-05-04 15:11 42.16865 -8.45766 24099 ft 412 kts 34°
2026-05-04 15:11 42.19131 -8.43332 24101 ft 422 kts 34°
2026-05-04 15:11 42.21438 -8.40859 24090 ft 432 kts 34°
2026-05-04 15:12 42.23842 -8.38287 24090 ft 441 kts 34°
2026-05-04 15:12 42.26270 -8.35692 24092 ft 450 kts 34°
2026-05-04 15:12 42.28748 -8.33044 24088 ft 458 kts 35°
2026-05-04 15:12 42.31265 -8.30354 24081 ft 466 kts 35°
2026-05-04 15:13 42.33830 -8.27612 24078 ft 473 kts 35°
2026-05-04 15:13 42.36405 -8.24857 24082 ft 479 kts 35°
2026-05-04 15:13 42.39050 -8.22023 24073 ft 485 kts 35°
2026-05-04 15:13 42.41673 -8.19209 24072 ft 491 kts 35°
2026-05-04 15:14 42.44368 -8.16314 24068 ft 496 kts 36°
2026-05-04 15:14 42.47118 -8.13358 24065 ft 501 kts 36°
2026-05-04 15:14 42.49816 -8.10454 24060 ft 501 kts 36°
2026-05-04 15:14 42.52534 -8.07522 24049 ft 500 kts 36°
2026-05-04 15:15 42.55287 -8.04551 24042 ft 498 kts 36°
2026-05-04 15:16 42.65706 -7.93283 24058 ft 498 kts 36°
2026-05-04 15:16 42.68398 -7.90364 24049 ft 497 kts 37°
2026-05-04 15:16 42.73810 -7.84485 24055 ft 497 kts 37°
2026-05-04 15:17 42.76514 -7.81542 24054 ft 497 kts 37°
2026-05-04 15:17 42.81913 -7.75658 24051 ft 497 kts 37°
2026-05-04 15:17 42.84617 -7.72705 24050 ft 497 kts 37°
2026-05-04 15:18 42.87315 -7.69755 24052 ft 497 kts 37°
2026-05-04 15:18 42.90009 -7.66807 24052 ft 497 kts 37°
2026-05-04 15:18 42.92710 -7.63848 24050 ft 498 kts 37°
2026-05-04 15:19 42.98091 -7.57942 24049 ft 498 kts 38°
2026-05-04 15:19 43.00757 -7.55009 24048 ft 497 kts 38°
2026-05-04 15:19 43.06157 -7.49062 24051 ft 498 kts 38°
2026-05-04 15:20 43.08859 -7.46080 24047 ft 498 kts 38°
2026-05-04 15:20 43.11555 -7.43103 24047 ft 498 kts 38°
2026-05-04 15:20 43.14249 -7.40124 24041 ft 498 kts 38°
2026-05-04 15:20 43.16946 -7.37138 24039 ft 498 kts 38°
2026-05-04 15:21 43.19637 -7.34155 24038 ft 498 kts 38°
2026-05-04 15:21 43.22323 -7.31173 24041 ft 498 kts 38°
2026-05-04 15:21 43.27706 -7.25189 24036 ft 497 kts 38°
2026-05-04 15:22 43.30393 -7.22196 24034 ft 497 kts 38°
2026-05-04 15:22 43.33066 -7.19215 24033 ft 497 kts 38°
2026-05-04 15:22 43.38432 -7.13221 24036 ft 497 kts 39°
2026-05-04 15:23 43.41080 -7.10259 24020 ft 497 kts 39°
2026-05-04 15:23 43.43772 -7.07243 24025 ft 497 kts 39°
2026-05-04 15:23 43.46452 -7.04236 24021 ft 498 kts 39°
2026-05-04 15:23 43.49142 -7.01216 24029 ft 498 kts 39°
2026-05-04 15:24 43.54501 -6.95188 24024 ft 498 kts 39°
2026-05-04 15:24 43.59872 -6.89131 24023 ft 498 kts 39°
2026-05-04 15:25 43.62559 -6.86096 24018 ft 499 kts 39°
2026-05-04 15:25 43.65239 -6.83065 24026 ft 499 kts 39°
2026-05-04 15:25 43.67932 -6.80016 24021 ft 499 kts 39°
2026-05-04 15:26 43.73305 -6.73920 24016 ft 500 kts 39°
2026-05-04 15:26 43.75984 -6.70876 24021 ft 500 kts 39°
2026-05-04 15:26 43.81379 -6.64734 24012 ft 501 kts 39°
2026-05-04 15:27 43.84063 -6.61672 24014 ft 501 kts 39°
2026-05-04 15:27 43.89453 -6.55514 24013 ft 502 kts 39°
2026-05-04 15:28 43.94843 -6.49340 24013 ft 502 kts 39°
2026-05-04 15:28 43.97550 -6.46234 24011 ft 503 kts 39°
2026-05-04 15:28 44.02933 -6.40047 24008 ft 502 kts 39°
2026-05-04 15:29 44.05625 -6.36946 24008 ft 502 kts 39°
2026-05-04 15:30 44.16363 -6.24542 24007 ft 502 kts 40°
2026-05-04 15:30 44.24412 -6.15203 24007 ft 502 kts 40°
2026-05-04 15:31 44.29742 -6.09002 24002 ft 502 kts 40°
2026-05-04 15:31 44.32449 -6.05846 24000 ft 502 kts 40°
2026-05-04 15:32 44.40495 -5.96442 24002 ft 502 kts 40°
2026-05-04 15:32 44.45817 -5.90203 23999 ft 502 kts 40°
2026-05-04 15:33 44.51171 -5.83911 23999 ft 503 kts 40°
2026-05-04 15:34 44.56508 -5.77623 23996 ft 502 kts 40°
2026-05-04 15:34 44.59182 -5.74466 23995 ft 502 kts 40°
2026-05-04 15:34 44.64517 -5.68157 23996 ft 501 kts 40°
2026-05-04 15:35 44.69841 -5.61847 23997 ft 501 kts 40°
2026-05-04 15:35 44.72496 -5.58693 23995 ft 501 kts 40°
2026-05-04 15:35 44.75165 -5.55518 23996 ft 500 kts 40°
2026-05-04 15:36 44.80480 -5.49186 23995 ft 501 kts 40°
2026-05-04 15:36 44.83144 -5.46007 23995 ft 501 kts 41°
2026-05-04 15:36 44.85790 -5.42844 23995 ft 501 kts 41°
2026-05-04 15:37 44.88451 -5.39659 23995 ft 501 kts 41°
2026-05-04 15:37 44.91108 -5.36476 23996 ft 501 kts 41°
2026-05-04 15:37 44.93762 -5.33293 23991 ft 501 kts 41°
2026-05-04 15:37 44.96377 -5.30151 23990 ft 501 kts 41°
2026-05-04 15:38 44.99061 -5.26922 23993 ft 501 kts 41°
2026-05-04 15:38 45.01713 -5.23729 23989 ft 501 kts 41°
2026-05-04 15:38 45.04327 -5.20578 23991 ft 501 kts 41°
2026-05-04 15:38 45.07009 -5.17340 23989 ft 501 kts 41°
2026-05-04 15:39 45.09660 -5.14135 23991 ft 501 kts 41°
2026-05-04 15:39 45.12307 -5.10932 23992 ft 501 kts 41°
2026-05-04 15:39 45.17565 -5.04556 23993 ft 501 kts 41°
2026-05-04 15:40 45.20212 -5.01340 23992 ft 500 kts 41°
2026-05-04 15:40 45.22844 -4.98138 23988 ft 499 kts 41°
2026-05-04 15:40 45.25478 -4.94931 23991 ft 499 kts 41°
2026-05-04 15:40 45.28121 -4.91707 23991 ft 499 kts 41°
2026-05-04 15:41 45.30742 -4.88506 23991 ft 498 kts 41°
2026-05-04 15:41 45.33372 -4.85290 23990 ft 498 kts 41°
2026-05-04 15:41 45.35991 -4.82085 23994 ft 498 kts 41°
2026-05-04 15:41 45.38618 -4.78865 23990 ft 497 kts 42°
2026-05-04 15:42 45.41230 -4.75659 23989 ft 497 kts 42°
2026-05-04 15:42 45.43847 -4.72443 23991 ft 497 kts 42°
2026-05-04 15:42 45.46464 -4.69223 23990 ft 497 kts 42°
2026-05-04 15:42 45.49080 -4.66000 23988 ft 496 kts 42°
2026-05-04 15:43 45.51694 -4.62775 23985 ft 496 kts 42°
2026-05-04 15:43 45.54303 -4.59553 23984 ft 496 kts 42°
2026-05-04 15:43 45.56910 -4.56329 23986 ft 496 kts 42°
2026-05-04 15:43 45.59513 -4.53106 23986 ft 496 kts 42°
2026-05-04 15:44 45.62115 -4.49879 23987 ft 495 kts 42°
2026-05-04 15:44 45.64719 -4.46646 23987 ft 495 kts 42°
2026-05-04 15:44 45.67314 -4.43420 23985 ft 495 kts 42°
2026-05-04 15:44 45.69917 -4.40181 23986 ft 495 kts 42°
2026-05-04 15:45 45.72478 -4.36989 23985 ft 495 kts 42°
2026-05-04 15:45 45.75070 -4.33755 23985 ft 495 kts 42°
2026-05-04 15:45 45.77663 -4.30515 23985 ft 494 kts 43°
2026-05-04 15:45 45.80252 -4.27276 23987 ft 494 kts 43°
2026-05-04 15:46 45.82842 -4.24032 23986 ft 494 kts 43°
2026-05-04 15:46 45.85468 -4.20738 23987 ft 494 kts 43°
2026-05-04 15:46 45.88053 -4.17492 23985 ft 494 kts 43°
2026-05-04 15:46 45.90606 -4.14282 23983 ft 494 kts 43°
2026-05-04 15:47 45.93220 -4.10990 23985 ft 494 kts 43°
2026-05-04 15:47 45.95769 -4.07777 23986 ft 494 kts 43°
2026-05-04 15:47 45.98381 -4.04480 23986 ft 494 kts 44°
2026-05-04 15:47 46.00965 -4.01214 23985 ft 494 kts 44°
2026-05-04 15:48 46.03544 -3.97950 23983 ft 494 kts 44°
2026-05-04 15:48 46.06123 -3.94682 23984 ft 494 kts 44°
2026-05-04 15:48 46.11277 -3.88137 23986 ft 494 kts 44°
2026-05-04 15:49 46.13859 -3.84852 23984 ft 494 kts 44°
2026-05-04 15:49 46.16433 -3.81573 23980 ft 493 kts 44°
2026-05-04 15:49 46.19000 -3.78300 23978 ft 492 kts 45°
2026-05-04 15:49 46.21565 -3.75024 23978 ft 491 kts 45°
2026-05-04 15:50 46.24089 -3.71797 23980 ft 491 kts 45°
2026-05-04 15:50 46.26673 -3.68488 23981 ft 490 kts 45°
2026-05-04 15:50 46.29222 -3.65219 23983 ft 490 kts 45°
2026-05-04 15:50 46.31770 -3.61948 23981 ft 489 kts 45°
2026-05-04 15:51 46.34303 -3.58692 23980 ft 488 kts 45°
2026-05-04 15:51 46.36847 -3.55418 23981 ft 488 kts 45°
2026-05-04 15:51 46.39381 -3.52152 23979 ft 487 kts 45°
2026-05-04 15:51 46.41903 -3.48897 23982 ft 487 kts 45°
2026-05-04 15:52 46.44426 -3.45636 23983 ft 486 kts 45°
2026-05-04 15:52 46.46927 -3.42401 23978 ft 486 kts 45°
2026-05-04 15:52 46.49451 -3.39131 23979 ft 486 kts 45°
2026-05-04 15:52 46.51968 -3.35865 23974 ft 486 kts 45°
2026-05-04 15:53 46.54484 -3.32598 23978 ft 485 kts 45°
2026-05-04 15:53 46.57002 -3.29323 23976 ft 485 kts 45°
2026-05-04 15:53 46.59513 -3.26052 23974 ft 485 kts 45°
2026-05-04 15:53 46.62030 -3.22770 23976 ft 485 kts 45°
2026-05-04 15:54 46.64539 -3.19495 23977 ft 484 kts 45°
2026-05-04 15:54 46.67036 -3.16230 23972 ft 484 kts 45°
2026-05-04 15:54 46.69552 -3.12937 23970 ft 484 kts 45°
2026-05-04 15:54 46.72053 -3.09659 23971 ft 484 kts 45°
2026-05-04 15:55 46.74555 -3.06374 23971 ft 484 kts 45°
2026-05-04 15:55 46.77058 -3.03085 23972 ft 484 kts 45°
2026-05-04 15:55 46.79561 -2.99791 23970 ft 485 kts 45°
2026-05-04 15:55 46.82067 -2.96488 23968 ft 485 kts 45°
2026-05-04 15:56 46.84572 -2.93183 23982 ft 486 kts 45°
2026-05-04 15:56 46.87089 -2.89858 23972 ft 488 kts 45°
2026-05-04 15:56 46.89604 -2.86530 23980 ft 489 kts 45°
2026-05-04 15:56 46.92117 -2.83201 23979 ft 490 kts 45°
2026-05-04 15:57 46.94658 -2.79831 23970 ft 492 kts 45°
2026-05-04 15:57 46.97205 -2.76449 23968 ft 493 kts 45°
2026-05-04 15:57 46.99743 -2.73073 23966 ft 494 kts 45°
2026-05-04 15:57 47.02296 -2.69673 23976 ft 496 kts 45°
2026-05-04 15:58 47.04852 -2.66264 23980 ft 497 kts 45°
2026-05-04 15:58 47.07407 -2.62854 23967 ft 497 kts 45°
2026-05-04 15:58 47.09094 -2.60599 23971 ft 497 kts 45°
2026-05-04 15:58 47.12510 -2.56027 23970 ft 497 kts 45°
2026-05-04 15:59 47.14189 -2.53776 23973 ft 497 kts 45°
2026-05-04 15:59 47.16756 -2.50332 23968 ft 497 kts 45°
2026-05-04 15:59 47.19254 -2.46976 23969 ft 498 kts 45°
2026-05-04 15:59 47.21820 -2.43523 23971 ft 498 kts 45°
2026-05-04 16:00 47.24372 -2.40084 23969 ft 498 kts 45°
2026-05-04 16:00 47.26927 -2.36637 23974 ft 498 kts 45°
2026-05-04 16:00 47.29475 -2.33194 23975 ft 499 kts 45°
2026-05-04 16:00 47.31999 -2.29780 23985 ft 499 kts 45°
2026-05-04 16:01 47.34595 -2.26262 23968 ft 500 kts 45°
2026-05-04 16:01 47.37157 -2.22786 23951 ft 499 kts 44°
2026-05-04 16:01 47.39664 -2.19385 23953 ft 482 kts 45°
2026-05-04 16:01 47.42093 -2.16091 23963 ft 465 kts 46°
2026-05-04 16:02 47.44475 -2.12849 23970 ft 470 kts 46°
2026-05-04 16:02 47.46902 -2.09531 23986 ft 481 kts 46°
2026-05-04 16:02 47.51887 -2.02699 23982 ft 501 kts 46°
2026-05-04 16:03 47.54472 -1.99153 23976 ft 510 kts 45°
2026-05-04 16:03 47.57081 -1.95576 23966 ft 511 kts 45°
2026-05-04 16:03 47.59684 -1.92004 23973 ft 513 kts 45°
2026-05-04 16:03 47.62301 -1.88408 23963 ft 516 kts 45°
2026-05-04 16:04 47.64925 -1.84800 23931 ft 502 kts 45°
2026-05-04 16:04 47.69802 -1.78094 23937 ft 461 kts 46°
2026-05-04 16:04 47.72134 -1.74872 23960 ft 459 kts 46°
2026-05-04 16:05 47.74495 -1.71595 23979 ft 469 kts 46°
2026-05-04 16:05 47.76872 -1.68288 23979 ft 478 kts 46°
2026-05-04 16:05 47.81384 -1.62004 28788 ft 0 kts 39°
2026-05-04 16:06 47.81703 -1.61744 0 ft 492 kts 28°
2026-05-04 16:06 47.90026 -1.55108 0 ft 532 kts 30°
2026-05-04 16:07 47.94386 -1.51574 0 ft 532 kts 36°
2026-05-04 16:07 48.04892 -1.42435 0 ft 627 kts 31°
2026-05-04 16:08 48.08513 -1.39015 59131 ft 559 kts 32°
2026-05-04 16:08 48.10730 -1.27757 17876 ft 435 kts 94°
2026-05-04 16:09 48.11507 -1.19131 16491 ft 435 kts 75°
2026-05-04 16:09 48.15104 -1.12283 17027 ft 397 kts 40°
2026-05-04 16:10 48.19376 -1.07366 17160 ft 388 kts 39°
2026-05-04 16:11 48.25717 -0.99388 18049 ft 400 kts 44°
2026-05-04 16:11 48.27748 -0.96576 18174 ft 395 kts 45°
2026-05-04 16:12 48.33666 -0.88102 18181 ft 389 kts 45°
2026-05-04 16:12 48.39486 -0.79727 18185 ft 382 kts 45°
2026-05-04 16:13 48.43308 -0.74225 18196 ft 379 kts 45°
2026-05-04 16:13 48.47100 -0.68756 18201 ft 376 kts 45°
2026-05-04 16:14 48.50862 -0.63321 18213 ft 373 kts 45°
2026-05-04 16:14 48.54567 -0.57954 18215 ft 370 kts 45°
2026-05-04 16:15 48.59559 -0.50708 18227 ft 367 kts 45°
2026-05-04 16:16 48.63216 -0.45385 18254 ft 365 kts 45°
2026-05-04 16:16 48.68691 -0.37396 18264 ft 362 kts 46°
2026-05-04 16:17 48.72308 -0.32103 18275 ft 360 kts 46°
2026-05-04 16:18 48.77641 -0.24085 18140 ft 362 kts 49°
2026-05-04 16:18 48.79290 -0.21268 18084 ft 362 kts 52°
2026-05-04 16:19 48.84590 -0.13095 18119 ft 361 kts 43°
2026-05-04 16:19 48.88329 -0.08133 18245 ft 359 kts 44°
2026-05-04 16:20 48.93803 -0.00362 18295 ft 357 kts 46°
2026-05-04 16:20 48.97218 0.04660 18304 ft 356 kts 46°
2026-05-04 16:21 48.98383 0.06369 18299 ft 349 kts 45°
2026-05-04 16:22 49.01787 0.11336 18098 ft 328 kts 46°
2026-05-04 16:22 49.06504 0.18333 17472 ft 308 kts 46°
2026-05-04 16:23 49.10991 0.25042 16670 ft 295 kts 46°
2026-05-04 16:24 49.16733 0.33660 15460 ft 285 kts 46°
2026-05-04 16:25 49.19521 0.37856 14859 ft 281 kts 46°
2026-05-04 16:26 49.25021 0.46153 13707 ft 275 kts 45°
2026-05-04 16:26 49.29050 0.52249 12745 ft 271 kts 45°
2026-05-04 16:27 49.31719 0.56295 12374 ft 269 kts 45°
2026-05-04 16:28 49.34947 0.61199 11847 ft 266 kts 45°